Location: Prairie State College
(41.5244°N, 87.6382°W)
Time: 15:37:33
(UTC-06:00)

Cosmos 1140 Rocket - Visible Passes

Search period start: 28 November 2014 00:00
Search period end: 08 December 2014 00:00
Orbit: 745 x 769 km, 74.1° (Epoch: 27 November)

Date Brightness Start Highest point End Pass type
(mag) Time Alt. Az. Time Alt. Az. Time Alt. Az.
28 Nov 5.7 04:30:20 10° SSE 04:34:33 26° E 04:38:49 10° NE visible
28 Nov 4.0 06:11:19 10° SW 06:16:09 38° WNW 06:21:03 10° N visible
29 Nov 6.4 03:52:04 10° SE 03:54:38 14° E 03:57:13 10° ENE visible
29 Nov 3.4 05:30:36 10° SSW 05:35:47 69° WNW 05:41:01 10° NNE visible
30 Nov 3.8 04:50:24 10° S 04:55:32 65° ESE 05:00:44 10° NNE visible
01 Dec 5.0 04:10:45 10° SSE 04:15:26 35° E 04:20:09 10° NE visible
01 Dec 4.3 05:52:46 10° WSW 05:57:16 29° WNW 06:01:50 10° N visible
02 Dec 5.9 03:31:51 10° SE 03:35:27 19° E 03:39:04 10° NE visible
02 Dec 3.6 05:11:46 10° SW 05:16:49 51° WNW 05:21:56 10° N visible
03 Dec 3.4 04:35:31 60° SSW 04:36:30 88° ESE 04:41:47 10° NNE visible
03 Dec 5.1 06:16:37 10° W 06:19:06 13° NW 06:21:36 10° NNW visible
04 Dec 4.8 03:58:06 34° NE 03:58:06 34° NE 04:01:22 10° NNE visible
04 Dec 4.6 05:38:15 22° WNW 05:38:25 22° WNW 05:42:30 10° N visible
05 Dec 6.2 03:19:55 13° NE 03:19:55 13° NE 03:20:34 10° NE visible
05 Dec 4.7 05:00:02 27° NNW 05:00:02 27° NNW 05:02:47 10° N visible
06 Dec 5.5 04:21:27 18° NNE 04:21:27 18° NNE 04:22:45 10° NNE visible
07 Dec 5.6 05:22:44 11° NNW 05:22:44 11° NNW 05:23:02 10° NNW visible
